[[{"header":{"parameterUnit":"m.s-1","parameterCategory":1,"la1":30.2991,"la2":30.254,"lo1":-89.0895,"lo2":-89.0444,"dy":0.0017,"dx":0.0017,"nx":28,"ny":28,"refTime":"2023-08-12T09:00:00:Z","depth":0,"parameterNumber":2,"parameterNumberName":"U-component_of_WINDS"},"data":[0,0,0,0,0,0,0,0,0,0,0,0,0,0,0,0,0,0,0,0,0,0,0,0,0,0,0,0,0,0,0,0,0,0,0,0,0,0,0,0,0,0,0,0,0,0,0,0,0,0,0,0,0,0,0,0,0,0,1.6761,1.6763,0,1.6958,1.6961,1.6963,1.7027,1.7026,1.7025,1.7024,1.7227,1.7233,1.7239,0,0,0,0,0,0,0,0,0,0,0,0,0,1.644,1.6446,1.6761,1.6764,1.6766,1.6958,1.6961,1.6964,1.7027,1.7026,1.7025,1.7024,1.7225,1.7232,1.724,0,0,0,0,0,0,0,0,0,0,0,0,0,1.6603,1.6448,1.6761,1.6821,1.6828,1.6958,1.6961,1.6964,1.7027,1.7026,1.7024,1.7023,1.7223,1.7232,1.7241,1.7325,0,0,1.7269,1.7273,0,0,0,0,0,0,0,0,1.6593,1.6614,1.681,1.6817,1.6825,1.6967,1.6922,1.7085,1.7027,1.6952,1.7024,1.7022,1.7142,1.7157,1.7197,1.7335,1.7343,1.727,1.7276,1.728,1.7283,0,0,0,0,0,0,0,1.6582,1.6606,1.6839,1.6812,1.6822,1.6838,1.686,1.6953,1.7052,1.6958,1.6963,1.6986,1.7146,1.7188,1.7203,1.7346,1.727,1.7278,1.7284,1.7288,1.7562,1.7564,0,0,0,0,0,0,1.656,1.6596,1.6833,1.6845,1.6704,1.6845,1.6869,1.6923,1.7051,1.7069,1.6986,1.6988,1.7173,1.7192,1.721,1.7317,1.728,1.7289,1.7294,1.7561,1.7563,1.7564,0,0,0,0,0,0,1.6553,1.6581,1.6825,1.6722,1.6755,1.6852,1.6911,1.6927,1.697,1.7072,1.709,1.7012,1.7173,1.7197,1.7296,1.7324,1.7293,1.7301,1.7559,1.7561,1.7564,1.753,0,0,0,0,0,0,1.6544,1.6578,1.6611,1.6723,1.676,1.6907,1.6913,1.6932,1.6986,1.6989,1.7101,1.7118,1.7173,1.7282,1.7305,1.7337,1.7309,1.7556,1.756,1.7563,1.7529,1.7531,1.7533,0,0,0,0,0,1.6532,1.6594,1.6612,1.664,1.6803,1.6909,1.693,1.6992,1.6988,1.7021,1.7087,1.7114,1.7318,1.7291,1.7318,1.7353,1.7555,1.7559,1.7563,1.7528,1.7531,1.7533,0,0,0,0,0,0,1.6483,1.661,1.6631,1.6731,1.6808,1.6919,1.6964,1.6993,1.7074,1.7074,1.7148,1.7172,1.7266,1.732,1.7288,1.7441,1.7438,1.7447,1.7402,1.7406,1.7407,1.7392,1.7316,0,0,0,0,0,1.6484,1.6559,1.6666,1.6743,1.6781,1.6865,1.6914,1.6955,1.7039,1.7072,1.7145,1.7225,1.7307,1.736,1.7441,1.7538,1.7563,1.7575,1.7577,1.7578,1.7585,1.764,1.7646,1.7577,1.7577,1.7577,0,0,1.6486,1.6565,1.6608,1.6736,1.68,1.6877,1.6893,1.6973,1.703,1.7084,1.7182,1.7238,1.7333,1.7431,1.7478,1.7479,1.761,1.7583,1.7583,1.759,1.7644,1.7651,1.7656,1.758,1.7579,1.7579,0,0,1.6529,1.6596,1.6668,1.6733,1.6831,1.6887,1.6904,1.701,1.705,1.7149,1.7191,1.726,1.74,1.7465,1.7517,1.7585,1.7613,1.7609,1.7619,1.7671,1.7677,1.7682,1.7705,1.7713,1.7616,1.7616,1.7616,0,1.652,1.6636,1.6701,1.6779,1.6834,1.6886,1.6959,1.7019,1.7139,1.7175,1.7175,1.7351,1.7418,1.7532,1.7548,1.7589,1.761,1.7596,1.7671,1.7677,1.7682,1.7705,1.7714,1.7615,1.7615,1.7615,1.7615,0,1.6619,1.6699,1.6745,1.6859,1.6919,1.6994,1.7071,1.7124,1.716,1.7216,1.7316,1.7399,1.7497,1.7527,1.7564,1.7646,1.7644,1.7656,1.7654,1.7687,1.7709,1.7719,1.7613,1.7614,1.7614,1.7614,0,0,1.6636,1.6785,1.68,1.6852,1.6964,1.7028,1.7105,1.7201,1.7245,1.7326,1.7392,1.7509,1.7521,1.758,1.7624,1.767,1.7717,1.7677,1.768,1.7681,1.7813,1.7802,1.7811,1.7737,1.7739,1.7741,1.7804,0,1.6692,1.6832,1.6893,1.7006,1.708,1.7131,1.7199,1.7275,1.7329,1.74,1.7461,1.7542,1.7552,1.7588,1.7636,1.7701,1.7745,1.7698,1.7799,1.7802,1.7773,1.7823,1.7812,1.7869,1.7814,1.7816,1.7817,0,1.6776,1.6857,1.6976,1.7079,1.7113,1.7173,1.7265,1.7333,1.742,1.7457,1.7522,1.7564,1.7647,1.764,1.7756,1.7722,1.7768,1.7806,1.781,1.7821,1.781,1.7835,1.7888,1.7896,1.7832,1.783,1.7829,0,1.6775,1.6914,1.7003,1.7046,1.7169,1.7209,1.7262,1.7349,1.7402,1.7484,1.7519,1.7609,1.7658,1.7727,1.7792,1.7781,1.7902,1.79,1.7934,1.7932,1.7956,1.7953,1.8016,1.7987,1.7987,1.7986,1.7986,0,1.6831,1.6902,1.7004,1.7059,1.714,1.721,1.7288,1.7345,1.7421,1.7488,1.7538,1.76,1.7683,1.7755,1.7807,1.7894,1.7916,1.7948,1.7961,1.7943,1.7939,1.7973,1.797,1.7989,1.7988,1.7988,1.7987,0,1.6843,1.6914,1.7015,1.7123,1.7151,1.7206,1.7299,1.7354,1.7411,1.7495,1.7518,1.7608,1.7695,1.7767,1.7883,1.7917,1.8008,1.8024,1.7978,1.7985,1.8014,1.801,1.8101,1.8116,1.8076,1.8077,1.8077,0,1.6873,1.6929,1.7042,1.7091,1.7143,1.722,1.7275,1.7346,1.7402,1.7505,1.7548,1.7639,1.7715,1.7853,1.7928,1.8017,1.8034,1.806,1.8047,1.8028,1.8033,1.8029,1.8034,1.806,1.806,1.806,1.806,0,1.6919,1.6951,1.7029,1.7118,1.7183,1.7257,1.7332,1.7369,1.7454,1.7513,1.7603,1.7663,1.778,1.787,1.7966,1.8021,1.8055,1.8064,1.8076,1.8058,1.8029,1.8044,1.798,1.8061,1.8061,1.8061,1.8061,1.8061,1.694,1.6992,1.708,1.7164,1.7229,1.7298,1.7355,1.7419,1.7495,1.7596,1.7633,1.7725,1.7812,1.7944,1.8,1.8073,1.8077,1.8095,1.8099,1.8102,1.8099,1.8018,1.8091,1.8091,1.8091,1.8091,1.8091,0,1.6988,1.7047,1.7124,1.7228,1.7294,1.7321,1.7406,1.7459,1.7539,1.7617,1.7691,1.7794,1.7882,1.7964,1.8055,1.8098,1.8116,1.8119,1.8116,1.8128,1.8091,1.8071,1.8103,1.8103,1.8103,1.8103,1.8103,1.8103,1.702,1.7109,1.7152,1.7273,1.7332,1.7422,1.7468,1.7533,1.7595,1.7708,1.778,1.7833,1.7913,1.801,1.8092,1.8114,1.8145,1.8144,1.817,1.8133,1.8131,1.8129,1.811,1.815,1.815,1.8201,1.8201,1.8202]},{"header":{"parameterUnit":"m.s-1","parameterCategory":1,"la1":30.2991,"la2":30.254,"lo1":-89.0895,"lo2":-89.0444,"dy":0.0017,"dx":0.0017,"nx":28,"ny":28,"refTime":"2023-08-12T09:00:00:Z","depth":0,"parameterNumber":3,"parameterNumberName":"V-component_of_WINDS"},"data":[0,0,0,0,0,0,0,0,0,0,0,0,0,0,0,0,0,0,0,0,0,0,0,0,0,0,0,0,0,0,0,0,0,0,0,0,0,0,0,0,0,0,0,0,0,0,0,0,0,0,0,0,0,0,0,0,0,0,5.5746,5.5745,0,5.5705,5.5705,5.5704,5.5618,5.5616,5.5614,5.5613,5.5573,5.5574,5.5574,0,0,0,0,0,0,0,0,0,0,0,0,0,5.5751,5.5751,5.5746,5.5745,5.5745,5.5705,5.5705,5.5704,5.5618,5.5616,5.5614,5.5612,5.5573,5.5574,5.5574,0,0,0,0,0,0,0,0,0,0,0,0,0,5.5734,5.5751,5.5746,5.5697,5.5692,5.5705,5.5705,5.5704,5.5619,5.5616,5.5613,5.5611,5.5573,5.5573,5.5574,5.5632,0,0,5.5577,5.5577,0,0,0,0,0,0,0,0,5.5735,5.5733,5.5705,5.57,5.5695,5.5664,5.5692,5.568,5.5619,5.5647,5.5613,5.5609,5.5606,5.5604,5.5602,5.5631,5.5629,5.5577,5.5578,5.5578,5.5578,0,0,0,0,0,0,0,5.5736,5.5735,5.573,5.5705,5.5699,5.5678,5.5672,5.5689,5.5641,5.5644,5.5638,5.5634,5.5602,5.5601,5.56,5.5628,5.5577,5.5578,5.5578,5.5579,5.5702,5.5705,0,0,0,0,0,0,5.5744,5.5736,5.5731,5.5729,5.5709,5.568,5.5674,5.5677,5.5641,5.5633,5.5636,5.563,5.5601,5.5599,5.5598,5.5663,5.5578,5.5579,5.5579,5.5699,5.5703,5.5706,0,0,0,0,0,0,5.5744,5.5744,5.5733,5.5731,5.5728,5.5683,5.5686,5.5677,5.5676,5.5635,5.5626,5.5643,5.5599,5.5597,5.5624,5.5661,5.5579,5.558,5.5696,5.57,5.5704,5.5794,0,0,0,0,0,0,5.5745,5.5745,5.5766,5.5732,5.5728,5.5759,5.5689,5.5678,5.5677,5.5669,5.564,5.5632,5.5597,5.5623,5.5625,5.566,5.5581,5.5693,5.5698,5.5703,5.5787,5.58,5.5812,0,0,0,0,0,5.5745,5.5794,5.5768,5.5767,5.5753,5.5761,5.5759,5.5717,5.5681,5.5701,5.5675,5.5633,5.5657,5.5627,5.5628,5.5664,5.569,5.5696,5.5702,5.5782,5.5798,5.5811,0,0,0,0,0,0,5.5834,5.5788,5.5759,5.5797,5.5784,5.5747,5.5772,5.5735,5.5732,5.5724,5.5672,5.5666,5.57,5.5685,5.5653,5.5718,5.5667,5.5673,5.5727,5.5741,5.5753,5.5756,5.5581,0,0,0,0,0,5.5858,5.5867,5.5827,5.5865,5.586,5.5817,5.5819,5.5787,5.5772,5.5766,5.5741,5.5728,5.5732,5.5736,5.5738,5.5785,5.5777,5.5811,5.5823,5.5833,5.5839,5.5862,5.5876,5.5726,5.5726,5.5726,0,0,5.5908,5.5884,5.5893,5.5882,5.5868,5.5879,5.5813,5.5828,5.5836,5.5768,5.5791,5.5774,5.5755,5.5793,5.5808,5.5781,5.5879,5.5841,5.5849,5.585,5.587,5.5884,5.5897,5.573,5.5729,5.5729,0,0,5.6003,5.5987,5.6016,5.6003,5.5982,5.5953,5.5961,5.5929,5.5914,5.5937,5.5886,5.5896,5.5904,5.5893,5.5888,5.5981,5.5942,5.5983,5.6046,5.6069,5.6081,5.6091,5.6123,5.6136,5.599,5.599,5.599,0,5.6068,5.6082,5.6036,5.6054,5.605,5.5989,5.6018,5.6008,5.599,5.5989,5.5959,5.5968,5.5952,5.5985,5.6008,5.6007,5.6013,5.5985,5.6083,5.6093,5.6102,5.6132,5.6144,5.5995,5.5994,5.5994,5.5993,0,5.6162,5.6173,5.6199,5.6181,5.6181,5.6205,5.6163,5.6168,5.6137,5.6112,5.6136,5.6114,5.611,5.6116,5.6086,5.6146,5.6129,5.6092,5.6039,5.6122,5.6149,5.616,5.6002,5.6,5.5999,5.5998,0,0,5.6311,5.6268,5.6278,5.6269,5.6242,5.625,5.6271,5.6266,5.6272,5.6262,5.6278,5.6287,5.6252,5.6247,5.6216,5.6236,5.631,5.6196,5.6195,5.6217,5.6373,5.64,5.6414,5.6284,5.6286,5.6288,5.6374,0,5.64,5.6432,5.6392,5.6433,5.6443,5.6385,5.6403,5.6389,5.6367,5.6372,5.6347,5.6354,5.6308,5.6304,5.6322,5.6297,5.634,5.629,5.6298,5.6299,5.6303,5.6428,5.6457,5.6539,5.6384,5.6386,5.6387,0,5.6507,5.6501,5.6543,5.6513,5.6515,5.6533,5.6525,5.6531,5.6514,5.6496,5.6491,5.6453,5.6472,5.6421,5.6447,5.6414,5.6415,5.6403,5.6405,5.6403,5.6348,5.6429,5.6565,5.6577,5.6404,5.6403,5.6401,0,5.661,5.6613,5.6638,5.6633,5.6598,5.6612,5.6598,5.6578,5.6578,5.6572,5.6571,5.6568,5.6566,5.6564,5.6527,5.6494,5.6557,5.6503,5.6542,5.6543,5.6557,5.6557,5.6694,5.656,5.656,5.656,5.656,0,5.6713,5.6741,5.6684,5.67,5.673,5.6683,5.6714,5.6695,5.6678,5.6689,5.664,5.6651,5.6601,5.6608,5.6579,5.6604,5.6604,5.659,5.6581,5.6593,5.6595,5.6593,5.6586,5.6563,5.6562,5.6562,5.6561,0,5.6833,5.6796,5.682,5.6785,5.6777,5.6801,5.6771,5.6785,5.6759,5.6774,5.6775,5.6735,5.674,5.6703,5.6701,5.6681,5.672,5.6703,5.6726,5.672,5.6761,5.6757,5.69,5.6916,5.6774,5.6775,5.6776,0,5.69,5.692,5.6887,5.6891,5.688,5.6886,5.6886,5.6841,5.6842,5.6824,5.684,5.6841,5.6839,5.685,5.6821,5.682,5.6801,5.6852,5.6801,5.6812,5.6801,5.68,5.6801,5.6862,5.6864,5.6865,5.6867,0,5.7022,5.7003,5.7003,5.6998,5.6999,5.6992,5.6983,5.6989,5.694,5.6945,5.6949,5.6948,5.6946,5.6947,5.694,5.6926,5.6889,5.6883,5.6892,5.6904,5.6916,5.6909,5.6754,5.688,5.6878,5.6877,5.6877,5.6876,5.7117,5.7132,5.7111,5.7113,5.7102,5.7094,5.7104,5.708,5.7083,5.7077,5.7051,5.706,5.7042,5.7029,5.7019,5.7026,5.7001,5.7014,5.7017,5.7021,5.7028,5.6916,5.7024,5.7024,5.7024,5.7023,5.7023,0,5.7236,5.722,5.7222,5.721,5.7212,5.7176,5.7164,5.7168,5.7177,5.7163,5.7162,5.7167,5.7169,5.714,5.7138,5.7149,5.7132,5.715,5.7148,5.7145,5.705,5.7042,5.7164,5.7164,5.7164,5.7164,5.7164,5.7164,5.7298,5.7321,5.73,5.7317,5.73,5.7308,5.7304,5.7297,5.7286,5.7294,5.7294,5.7275,5.7256,5.7252,5.7252,5.7243,5.7245,5.7269,5.7255,5.7166,5.7152,5.7139,5.7131,5.727,5.727,5.7349,5.735,5.735]}]]